This demonstration page uses our WeatherBlox Daily Observations layout. Learn more.

Left ArrowRight Arrow

Hourly Observations for August 2, 2020

Temp ( °F °C ) Dew Point ( °F °C ) Humidity (%) Winds ( mph kmh ) Pressure ( in mb ) Visibility ( mi km ) Precip ( " mm )
12:15 am 00:15 Partly Cloudy 65 18.3 62 16.7 90 90 N 3 6 30.05 1018 10 16 N/A
12:35 am 00:35 Partly Cloudy 64 18 62 16.5 91 91 N 3 6 30.05 1018 10 16 N/A
12:55 am 00:55 Clear 64 17.8 62 16.5 92 92 N 5 7 30.06 1018 10 16 N/A
1:15 am 01:15 Clear 64 17.5 61 16.2 92 92 N N/A 30.06 1018 10 16 N/A
1:35 am 01:35 Clear 63 17.1 61 16 93 93 N 5 7 30.07 1018 10 16 N/A
1:55 am 01:55 Clear 63 17 60 15.5 91 91 N 5 7 30.07 1018 10 16 N/A
2:15 am 02:15 Clear 62 16.6 59 15.1 91 91 N N/A 30.08 1018 10 16 N/A
2:35 am 02:35 Clear 61 16.2 59 15.1 93 93 N 6 9 30.08 1019 10 16 N/A
2:55 am 02:55 Clear 61 16.1 58 14.6 91 91 NNW 5 7 30.08 1019 10 16 N/A
3:15 am 03:15 Clear 60 15.6 58 14.2 91 91 WNW 3 6 30.08 1019 10 16 N/A
3:35 am 03:35 Clear 59 15 57 14 94 94 NNW 5 7 30.09 1019 10 16 N/A
3:55 am 03:55 Clear 59 14.9 57 13.7 93 93 NW 3 6 30.09 1019 10 16 N/A
4:15 am 04:15 Clear 58 14.7 56 13.6 93 93 NNW 5 7 30.08 1019 10 16 N/A
4:35 am 04:35 Clear 58 14.5 56 13.2 92 92 NNW 3 6 30.09 1019 10 16 N/A
4:55 am 04:55 Clear 58 14.3 56 13.1 93 93 NNW 3 6 30.10 1019 10 16 N/A
5:15 am 05:15 Clear 58 14.2 55 13 93 93 NW 6 9 30.10 1019 10 16 N/A
5:35 am 05:35 Clear 57 14.1 55 12.9 93 93 NW 3 6 30.11 1020 10 16 N/A
5:55 am 05:55 Clear 58 14.2 55 12.8 91 91 NNW 5 7 30.12 1020 10 16 N/A
6:15 am 06:15 Clear 57 14.1 55 12.5 90 90 NNW 6 9 30.11 1020 10 16 N/A
6:35 am 06:35 Clear 57 14 55 12.5 91 91 NNW 6 9 30.11 1020 10 16 N/A
6:55 am 06:55 Sunny 56 13.5 54 12.2 92 92 NNW 6 9 30.13 1020 10 16 N/A
7:15 am 07:15 Sunny 57 13.7 54 12.4 92 92 NNW 6 9 30.13 1020 10 16 N/A
7:35 am 07:35 Sunny 58 14.5 55 12.7 89 89 NNW 6 9 30.13 1020 10 16 N/A
7:55 am 07:55 Sunny 59 15.1 56 13.1 88 88 NNW 6 9 30.13 1020 10 16 N/A
8:15 am 08:15 Sunny 61 15.9 56 13.4 85 85 N 6 9 30.13 1020 10 16 N/A
8:35 am 08:35 Sunny 63 17 57 13.7 81 81 NNW 6 9 30.12 1020 10 16 N/A
8:55 am 08:55 Sunny 64 17.6 57 13.9 79 79 N 6 9 30.12 1020 10 16 N/A
9:15 am 09:15 Sunny 65 18.2 57 14.1 77 77 N 7 11 30.12 1020 10 16 N/A
9:35 am 09:35 Sunny 66 18.9 58 14.3 75 75 N 7 11 30.12 1020 10 16 N/A
9:55 am 09:55 Sunny 67 19.7 58 14.4 72 72 N 7 11 30.11 1020 10 16 N/A
10:15 am 10:15 Sunny 68 20.2 57 14.1 68 68 N 9 15 30.11 1019 10 16 N/A
10:35 am 10:35 Sunny 70 21 56 13.4 62 62 N 8 13 30.11 1020 10 16 N/A
10:55 am 10:55 Sunny 71 21.5 56 13.5 60 60 N 12 19 30.10 1019 10 16 N/A
11:15 am 11:15 Sunny 71 21.6 55 13 58 58 NNE 13 20 30.09 1019 10 16 N/A
11:35 am 11:35 Partly Cloudy 72 22.2 55 12.6 55 55 N 8 13 30.10 1019 10 16 N/A
11:55 am 11:55 Partly Cloudy 73 22.6 53 11.8 51 51 N 12 19 30.09 1019 10 16 N/A
12:15 pm 12:15 Partly Cloudy 73 23 54 12.1 50 50 N 10 17 30.08 1019 10 16 N/A
12:35 pm 12:35 Partly Cloudy 73 23 53 11.6 49 49 NNE 14 22 30.08 1019 10 16 N/A
12:55 pm 12:55 Partly Cloudy 74 23.2 53 11.8 49 49 N 14 22 30.08 1019 10 16 N/A
1:15 pm 13:15 Partly Cloudy 73 23 53 11.8 49 49 N 10 17 30.07 1018 10 16 N/A
1:35 pm 13:35 Mostly Cloudy 74 23.5 51 10.8 45 45 N 10 17 30.07 1018 10 16 N/A
1:55 pm 13:55 Partly Cloudy 74 23.5 53 11.6 47 47 NNE 12 19 30.06 1018 10 16 N/A
2:15 pm 14:15 Partly Cloudy 75 23.7 52 11.1 45 45 NNE 8 13 30.06 1018 10 16 N/A
2:35 pm 14:35 Sunny 75 23.9 53 11.5 46 46 NNE 12 19 30.04 1017 10 16 N/A
2:55 pm 14:55 Sunny 75 24 52 11 44 44 NNE 8 13 30.04 1017 10 16 N/A
3:15 pm 15:15 Partly Cloudy 76 24.3 54 12.2 47 47 NNE 10 17 30.04 1017 10 16 N/A
3:35 pm 15:35 Partly Cloudy 75 24 53 11.6 46 46 N 7 11 30.02 1017 10 16 N/A
3:55 pm 15:55 Partly Cloudy 76 24.4 53 11.7 45 45 NNE 8 13 30.03 1017 10 16 N/A
4:15 pm 16:15 Partly Cloudy 76 24.5 54 12 46 46 NE 9 15 30.03 1017 10 16 N/A
4:35 pm 16:35 Partly Cloudy 77 25 54 12.4 46 46 N 7 11 30.02 1016 10 16 N/A
4:55 pm 16:55 Partly Cloudy 76 24.6 54 12.3 46 46 N 8 13 30.01 1016 10 16 N/A
5:15 pm 17:15 Partly Cloudy 76 24.5 54 12 46 46 NNE 9 15 30.02 1017 10 16 N/A
5:35 pm 17:35 Partly Cloudy 76 24.7 54 12.2 46 46 NNE 8 13 30.01 1016 10 16 N/A
5:55 pm 17:55 Sunny 76 24.3 55 12.8 49 49 NNE 6 9 30.01 1016 10 16 N/A
6:15 pm 18:15 Sunny 76 24.4 55 12.5 48 48 NNE 9 15 30.00 1016 10 16 N/A
6:35 pm 18:35 Sunny 76 24.2 55 12.6 48 48 NNE 7 11 30.00 1016 10 16 N/A
6:55 pm 18:55 Sunny 75 24 55 12.9 50 50 NNE 7 11 30.00 1016 10 16 N/A
7:15 pm 19:15 Sunny 74 23.6 55 13 52 52 NNE 9 15 30.01 1016 10 16 N/A
7:35 pm 19:35 Sunny 73 23 57 13.8 56 56 NNE 6 9 30.01 1016 10 16 N/A
7:55 pm 19:55 Sunny 72 22.1 58 14.4 62 62 NNE 3 6 30.02 1017 10 16 N/A
8:15 pm 20:15 Sunny 69 20.8 58 14.7 68 68 NE 3 6 30.03 1017 10 16 N/A
8:35 pm 20:35 Sunny 67 19.4 60 15.3 77 77 NNE 5 7 30.04 1017 10 16 N/A
8:55 pm 20:55 Clear 65 18.6 59 15.1 80 80 NE 6 9 30.06 1018 10 16 N/A
9:15 pm 21:15 Clear 64 17.8 59 15.1 84 84 NE 5 7 30.07 1018 10 16 N/A
9:35 pm 21:35 Clear 63 17.4 59 14.8 85 85 NE 6 9 30.08 1019 10 16 N/A
9:55 pm 21:55 Clear 63 17 58 14.5 85 85 ENE 5 7 30.09 1019 10 16 N/A
10:15 pm 22:15 Clear 62 16.5 58 14.2 86 86 NE 5 7 30.10 1019 10 16 N/A
10:35 pm 22:35 Clear 62 16.5 57 14.1 86 86 NE 5 7 30.10 1019 10 16 N/A
10:55 pm 22:55 Clear 61 16 57 14 88 88 NNE 3 6 30.11 1020 10 16 N/A
11:15 pm 23:15 Clear 61 16.2 57 14 87 87 N N/A 30.11 1020 10 16 N/A
11:35 pm 23:35 Clear 61 15.9 58 14.2 90 90 N N/A 30.12 1020 10 16 N/A
11:55 pm 23:55 Clear 60 15.5 57 14.1 91 91 N N/A 30.12 1020 10 16 N/A

Powered by AerisWeather